Find OneWeb SL0596

NORAD ID: 54662 Int'l Des: 2022-166 Owner: ONEWEBN Country: UK Constellation: oneweb operational
LEOCIRCULARPOLARONEWEB_TYPE

实时位置

正在加载3D地球...

关于 OneWeb SL0596

正在加载描述...

即将过境

Passes for default location (London). Set your location on the main map for personalized predictions.

高度历史

Loading altitude history...

两行轨道根数

1 54662U 22166W 26121.29868743 .00000082 00000-0 16771-3 0 9994
2 54662 87.9222 253.3181 0001775 99.3184 260.8151 13.21827821165349
Epoch: May 1, 2026 • Age: 5 hours

当前状态

高度 1207.6 km
速度 7.25 km/s
星下点 -82.98°S, 48.94°E
发射日期 Dec 8, 2022
运行时间 3.3 years
类型 internet

技术详情

分类 Payload
质量 148.00 kg
干质量 140.00 kg
总质量 148.00 kg
长度 1.30 m
直径 1.00 m
跨度 5.00 m
形状 Trapezoid+2 pan
制造商 ONEWUS
平台类型 ARROW
阶段状态 In Orbit
所有者/国家 ONEWEBN/UK

Most Searched